Location: Street
(51.1247°N, 2.7429°W)
Time: 10:10:56
(UTC+00:00)

Tiros 1 - Pass Details

Date: 26 November 2020
Orbit: 630 x 663 km, 48.4° (Epoch: 21 January)

Event Time Altitude Azimuth Distance (km) Brightness Sun altitude
Rises 17:14:56 0° 233° (SW) 2,986 12.3 -9.8°
Reaches altitude 10° 17:17:23 10° 227° (SW) 2,073 11.0 -10.1°
Maximum altitude 17:21:51 40° 158° (SSE) 965 8.0 -10.8°
Enters shadow 17:25:39 14° 92° (E) 1,827 8.9 -11.4°
Drops below altitude 10° 17:26:19 10° 89° (E) 2,065 - -11.5°
Sets 17:28:45 0° 82° (E) 2,972 - -11.8°
